Peoria, IL

4:12 PM CST on November 13, 2019 (GMT -0600)
Greater Peoria Regional

Weather History for KPIA - September, 2019

Change the Weather History Date:

Saturday, September 28, 2019

  Actual Average Record
Temperature  
Mean Temperature 70 °F 61 °F  
Max Temperature 78 °F 72 °F 92 °F (1939)
Min Temperature 63 °F 50 °F 26 °F (1942)
Degree Days  
Heating Degree Days 0 6  
Month to date heating degree days 1 72  
Since 1 July heating degree days 1 78  
Cooling Degree Days 6 2  
Month to date cooling degree days 209 114  
Year to date cooling degree days 1191 1021  
Growing Degree Days 20 (Base 50)    
Moisture  
Dew Point 63 °F    
Average Humidity 87    
Maximum Humidity 97    
Minimum Humidity 66    
Precipitation  
Precipitation 0.54 in 0.10 in 2.14 in (1945)
Month to date precipitation 7.22 2.97  
Year to date precipitation 40.74 27.92  
Snow  
Snow 0.00 in 0.00 in 0.00 in ()
Month to date snowfall 0.0 0.0  
Since 1 July snowfall 0.0 0.0  
Since 1 September snowfall 0.0 0.0  
Snow Depth 0.00 in    
Sea Level Pressure  
Sea Level Pressure 29.97 in    
Wind  
Wind Speed 7 mph ()    
Max Wind Speed 22 mph    
Max Gust Speed 29 mph    
Visibility 7.9 miles    
Events Rain , Thunderstorm    
T = Trace of Precipitation, MM = Missing Value Source: Averaged Metar Reports

Daily Weather History Graph

Daily Weather History Graph

Search for Another Location

Airport or City:

Astronomy

Sep. 28, 2019 Rise Set
Actual Time 6:52 AM CDT 6:46 PM CDT
Civil Twilight 6:24 AM CDT 7:13 PM CDT
Nautical Twilight 5:52 AM CDT 7:45 PM CDT
Astronomical Twilight 5:20 AM CDT 8:17 PM CDT
Moon 6:27 AM CDT (9/28) 7:12 PM CDT (9/28)
Length of Visible Light 12h 48m
Length of Day
11h 54m
Waning Crescent, 0% of the Moon is Illuminated
Sep 28
Waning Crescent
Sep 28
New
Oct 5
First Quarter
Oct 13
Full
Oct 21
Last Quarter

Hourly Weather History & Observations

Time (CDT) Temp. Dew Point Humidity Pressure Visibility Wind Dir Wind Speed Gust Speed Precip Events Conditions
12:44 AM 64.9 °F 63.0 °F 93% 29.82 in 6.0 mi SE 5.8 mph - 0.16 in Rain , Thunderstorm Light Rain
12:54 AM 64.9 °F 63.0 °F 93% 29.79 in 7.0 mi ESE 6.9 mph - 0.18 in Rain , Thunderstorm Light Rain
1:02 AM 64.9 °F 63.0 °F 93% 29.80 in 8.0 mi East 6.9 mph - 0.01 in Rain Light Rain
1:43 AM 64.9 °F 63.0 °F 93% 29.83 in 6.0 mi SSW 9.2 mph - 0.04 in Rain Light Rain
1:54 AM 64.9 °F 63.0 °F 93% 29.85 in 10.0 mi SSW 15.0 mph 25.3 mph 0.04 in Rain Light Rain
2:04 AM 64.9 °F 63.0 °F 93% 29.85 in 10.0 mi SSW 5.8 mph 20.7 mph 0.01 in   Scattered Clouds
2:38 AM 64.9 °F 63.0 °F 93% 29.86 in 10.0 mi SSW 5.8 mph - 0.01 in Rain , Thunderstorm Light Rain
2:54 AM 64.9 °F 63.0 °F 93% 29.89 in 5.0 mi SW 9.2 mph - 0.01 in Rain Light Rain
3:02 AM 64.9 °F 63.0 °F 93% 29.90 in 4.0 mi SW 6.9 mph - 0.02 in Rain , Thunderstorm Rain
3:12 AM 66.0 °F 63.0 °F 90% 29.91 in 4.0 mi SW 8.1 mph - 0.04 in Rain , Thunderstorm Thunderstorms and Rain
3:28 AM 64.9 °F 64.0 °F 97% 29.88 in 2.5 mi SE 3.5 mph - 0.10 in Rain , Thunderstorm Thunderstorms and Rain
3:35 AM 64.9 °F 63.0 °F 93% 29.88 in 3.0 mi SE 4.6 mph - 0.12 in Rain , Thunderstorm Thunderstorms and Rain
3:46 AM 64.9 °F 63.0 °F 93% 29.87 in 4.0 mi ESE 5.8 mph - 0.16 in Rain , Thunderstorm Rain
3:54 AM 64.9 °F 63.0 °F 93% 29.87 in 4.0 mi SSE 6.9 mph - 0.19 in Rain Rain
4:12 AM 64.9 °F 64.0 °F 97% 29.90 in 9.0 mi South 5.8 mph - 0.02 in Rain Light Rain
4:44 AM 64.9 °F 64.0 °F 97% 29.94 in 5.0 mi SSW 11.5 mph - 0.04 in Rain Light Rain
4:54 AM 66.0 °F 64.0 °F 93% 29.93 in 4.0 mi SSW 10.4 mph - 0.06 in Rain Rain
5:03 AM 66.0 °F 64.0 °F 93% 29.94 in 4.0 mi South 9.2 mph - 0.02 in Rain Light Rain
5:17 AM 64.9 °F 64.0 °F 97% 29.93 in 4.0 mi South 8.1 mph - 0.05 in Rain Rain
5:54 AM 66.0 °F 64.0 °F 93% 29.92 in 10.0 mi SSW 5.8 mph - 0.06 in   Overcast
6:54 AM 64.9 °F 64.0 °F 97% 29.95 in 10.0 mi SSW 3.5 mph - 0.00 in Rain Light Rain
7:11 AM 64.9 °F 63.0 °F 93% 29.97 in 10.0 mi Calm Calm - 0.00 in   Partly Cloudy
7:54 AM 66.0 °F 64.0 °F 93% 29.95 in 10.0 mi SE 3.5 mph - 0.00 in   Partly Cloudy
8:05 AM 66.0 °F 64.0 °F 93% 29.97 in 10.0 mi Calm Calm - N/A   Scattered Clouds
8:18 AM 66.0 °F 64.0 °F 93% 29.97 in 3.0 mi Calm Calm - N/A   Mostly Cloudy
8:54 AM 66.9 °F 64.0 °F 90% 29.99 in 3.0 mi NNW 4.6 mph - N/A   Overcast
9:54 AM 69.1 °F 64.9 °F 87% 30.02 in 10.0 mi Variable 3.5 mph - N/A   Overcast
10:12 AM 70.0 °F 64.9 °F 84% 30.02 in 10.0 mi Calm Calm - N/A   Overcast
10:54 AM 73.0 °F 64.9 °F 76% 30.03 in 10.0 mi Calm Calm - N/A   Scattered Clouds
11:04 AM 73.9 °F 66.0 °F 76% 30.04 in 10.0 mi Calm Calm - N/A   Mostly Cloudy
11:54 AM 73.0 °F 64.9 °F 76% 30.06 in 10.0 mi Calm Calm - N/A   Overcast
12:54 PM 73.9 °F 66.0 °F 76% 30.06 in 10.0 mi Calm Calm - N/A   Mostly Cloudy
1:54 PM 77.0 °F 66.0 °F 69% 30.05 in 10.0 mi NE 4.6 mph - N/A   Mostly Cloudy
2:01 PM 75.9 °F 66.0 °F 71% 30.06 in 10.0 mi NNE 6.9 mph - N/A   Mostly Cloudy
2:54 PM 78.1 °F 66.0 °F 66% 30.04 in 10.0 mi Variable 4.6 mph - N/A   Mostly Cloudy
3:54 PM 75.9 °F 68.0 °F 76% 30.04 in 10.0 mi ENE 11.5 mph - N/A   Scattered Clouds
4:49 PM 71.6 °F 64.4 °F 78% 30.06 in 10.0 mi ENE 15.0 mph - N/A   Overcast
4:54 PM 71.1 °F 64.9 °F 81% 30.05 in 10.0 mi NE 13.8 mph 23.0 mph N/A   Overcast
5:54 PM 69.1 °F 63.0 °F 81% 30.05 in 10.0 mi NE 13.8 mph 25.3 mph N/A   Overcast
6:54 PM 66.0 °F 61.0 °F 84% 30.07 in 10.0 mi ENE 16.1 mph 27.6 mph N/A   Overcast
7:54 PM 64.9 °F 60.1 °F 84% 30.10 in 10.0 mi ENE 18.4 mph - N/A   Overcast
8:54 PM 64.9 °F 59.0 °F 81% 30.11 in 10.0 mi East 16.1 mph 26.5 mph N/A   Mostly Cloudy
9:04 PM 64.9 °F 59.0 °F 81% 30.11 in 10.0 mi East 16.1 mph 25.3 mph N/A   Mostly Cloudy
9:54 PM 64.0 °F 57.9 °F 80% 30.12 in 10.0 mi ENE 15.0 mph - N/A   Partly Cloudy
10:54 PM 64.0 °F 57.9 °F 80% 30.11 in 10.0 mi East 16.1 mph 24.2 mph N/A   Mostly Cloudy
11:54 PM 64.0 °F 59.0 °F 84% 30.10 in 10.0 mi East 16.1 mph - N/A   Scattered Clouds